Regional Weather Roundup
Issued by NWS

Home | Current Version | Previous Version | Text Only | Print | Product List | Glossary Off
Versions: 1 2 3 4 5 6 7 8 9 10 11 12 13 14 15 16 17 18 19 20 21 22 23 24 25 26 27 28 29 30 31 32 33 34 35 36 37 38 39 40 41 42 43 44 45 46 47 48 49 50

000
ASUS45 KABQ 061610
RWRNM
WEATHER ROUNDUP FOR NEW MEXICO
NATIONAL WEATHER SERVICE ALBUQUERQUE NM
1000 AM MDT WED MAY 06 2015

NOTE: "FAIR" MEANS FEW OR NO CLOUDS BELOW 12,000 FEET AGL WITH NO
       SIGNIFICANT WEATHER OR OBSTRUCTIONS TO VISION.

      THIS PRODUCT IS RELEASED AS TWO VERSIONS.  ONE VERSION NEAR
      THE TOP OF THE HOUR CONTAINING PRELIMINARY DATA FROM ALBUQUERQUE
      AND OTHER STATIONS.  A FINAL VERSION WITH ADDITIONAL DATA IS
      ISSUED ABOUT 10 MINUTES AFTER THE HOUR.

NMZ501-503-504-510>518-061700-
NORTHWEST PLATEAU/NORTHCENTRAL MOUNTAINS

CITY           SKY/WX    TMP DP  RH WIND       PRES   REMARKS
FARMINGTON     MOSUNNY   56  45  66 W12       29.91S
LOS ALAMOS     PTSUNNY   52  45  76 N3        29.98F
SANTA FE       MOSUNNY   58  43  57 SW15G21   29.95R
TAOS           CLOUDY    48  37  66 SW10      29.97S
ANGEL FIRE     PTSUNNY   43  38  83 SW10G22   29.95S

$$
NMZ402-403-502-505>509-061700-
WESTCENTRAL MOUNTAINS/SOUTHWEST MOUNTAINS

CITY           SKY/WX    TMP DP  RH WIND       PRES   REMARKS
GALLUP         PTSUNNY   52  44  74 SW12      30.00S
GRANTS         PTSUNNY   54  40  59 W10       30.02S
SILVER CITY      N/A     63  39  42 W5        30.02S

$$
NMZ407-409-411-412-061700-
SOUTHERN DESERTS

CITY           SKY/WX    TMP DP  RH WIND       PRES   REMARKS
LORDSBURG      FAIR      66  41  39 SE7       29.97S
DEMING         SUNNY     67  41  38 W6        29.97S
LAS CRUCES     SUNNY     69  39  33 W9        29.98S
HOLLOMAN AFB   MOSUNNY   71  36  27 W10       29.93S
ALAMOGORDO     MOSUNNY   70  36  28 W6        29.96S
T OR C         MOSUNNY   66  38  35 VRB6      29.95F

$$
NMZ519>523-061700-
CENTRAL VALLEYS/CENTRAL HIGHLANDS

CITY           SKY/WX    TMP DP  RH WIND       PRES   REMARKS
ALBUQUERQUE    PTSUNNY   60  43  53 SW10      29.96S
DOUBLE EAGLE   PTSUNNY   57  45  62 SW15      29.97S
MORIARTY ARPT  FAIR      58  42  55 W18G26    29.98S
CLINES CORNERS MOSUNNY   55  42  61 W25G31    29.95S
BELEN          FAIR      61  40  45 W9        29.97S
SOCORRO        FAIR      60  43  55 SE3       29.97R

$$
NMZ524>526-539-540-061700-
SOUTHCENTRAL MOUNTAINS

CITY           SKY/WX    TMP DP  RH WIND       PRES   REMARKS
RUIDOSO        SUNNY     57  37  47 SE6       30.04S

$$
NMZ527>531-061700-
NORTHEAST HIGHLANDS/NORTHEAST PLAINS

CITY           SKY/WX    TMP DP  RH WIND       PRES   REMARKS
LAS VEGAS      PTSUNNY   59  38  45 NW14G24   29.90F
RATON          MOSUNNY   63  38  39 W15G25    29.80S
CLAYTON        NOT AVBL

$$
NMZ532>537-061700-
EASTCENTRAL PLAINS

CITY           SKY/WX    TMP DP  RH WIND       PRES   REMARKS
TUCUMCARI      MOSUNNY   69  48  47 W23G33    29.79R
CANNON AFB     SUNNY     66  47  51 W20G31    29.89S
CLOVIS AIRPORT SUNNY     66  48  52 SW25      29.88F

$$
NMZ028-029-538-061700-
SOUTHEAST PLAINS

CITY           SKY/WX    TMP DP  RH WIND       PRES   REMARKS
ROSWELL        SUNNY     69  45  41 SW6       29.89F
ARTESIA        SUNNY     75  39  27 W6        29.91S
CARLSBAD       SUNNY     77  41  27 W18       29.89S
HOBBS          SUNNY     70  55  60 S13       29.94R


$$



USA.gov is the U.S. government's official web portal to all federal, state and local government web resources and services.